Location: Dunn (historical)
(35.2693°N, 90.5721°W)
Time: 12:23:11
(UTC+00:00)

Cosmos 2100 Rocket - Pass Details

Date: 13 February 2026
Orbit: 954 x 1001 km, 82.9° (Epoch: 8 March)

Event Time Altitude Azimuth Distance (km) Brightness Sun altitude
Rises 12:19:24 0° 191° (S) 3,706 7.1 -7.0°
Reaches altitude 10° 12:21:56 10° 193° (SSW) 2,761 6.4 -6.5°
Maximum altitude 12:28:16 71° 277° (W) 1,054 4.1 -5.2°
Drops below altitude 10° 12:34:37 10° 1° (N) 2,765 6.3 -4.0°
Sets 12:37:09 0° 4° (N) 3,712 6.9 -3.5°
